{"data":{"norad_id":65395,"intl_designator":"2025-191S","name":"STARLINK-35094","alt_names":[],"object_type":"PAYLOAD","status":"ACTIVE","operator":null,"country":"US","launch_date":"2025-08-30","launch_site_code":"AFWTR","launch_vehicle":null,"mission":null,"orbit_class":"UNKNOWN","rcs_meters":null,"size_class":null,"mass_kg":null,"dimensions":null,"purposes":["comms"],"wikipedia_slug":null,"has_3d_model":false,"image_url":null,"decayed_at":null,"tle_current":{"epoch":"2026-05-25T02:08:15.484704Z","epoch_age_seconds":61355,"freshness":"FRESH","line1":"1 65395U 25191S   26145.08906811  .00004292  00000+0  30125-3 0  9997","line2":"2 65395  97.4513  16.4283 0002362  79.2013 280.9480 15.05660626 41775","mean_motion":15.05660626,"eccentricity":0.0002362,"inclination_deg":97.4513,"raan_deg":16.4283,"arg_perigee_deg":79.2013,"mean_anomaly_deg":280.948,"bstar":0.00030125,"rev_number":4177,"period_min":95.639081950729,"perigee_km":547.842257234,"apogee_km":551.11486282456,"semimajor_km":6927.6155600293,"source":"CELESTRAK","updated_at":"2026-05-25T13:38:20.775447Z"}}}